owner,sensor,date,latitude,longitude,vertical_datum,sea_water_temperature,qcFlag 
DISL,ioos:station:DISL:PPTA:1,2013-11-01T00:00:00Z,30.2791,-87.5561,0.0,23.36,2 
DISL,ioos:station:DISL:PPTA:1,2013-11-01T00:30:00Z,30.2791,-87.5561,0.0,23.37,2 
DISL,ioos:station:DISL:PPTA:1,2013-11-01T01:00:00Z,30.2791,-87.5561,0.0,23.37,2 
DISL,ioos:station:DISL:PPTA:1,2013-11-01T01:30:00Z,30.2791,-87.5561,0.0,23.38,2 
DISL,ioos:station:DISL:PPTA:1,2013-11-01T02:00:00Z,30.2791,-87.5561,0.0,23.37,2 
DISL,ioos:station:DISL:PPTA:1,2013-11-01T02:30:00Z,30.2791,-87.5561,0.0,23.38,2 
DISL,ioos:station:DISL:PPTA:1,2013-11-01T03:00:00Z,30.2791,-87.5561,0.0,23.37,2 
DISL,ioos:station:DISL:PPTA:1,2013-11-01T03:30:00Z,30.2791,-87.5561,0.0,23.37,2 
DISL,ioos:station:DISL:PPTA:1,2013-11-01T04:00:00Z,30.2791,-87.5561,0.0,23.37,2 
DISL,ioos:station:DISL:PPTA:1,2013-11-01T04:30:00Z,30.2791,-87.5561,0.0,23.39,2 
DISL,ioos:station:DISL:PPTA:1,2013-11-01T05:00:00Z,30.2791,-87.5561,0.0,23.37,2 
DISL,ioos:station:DISL:PPTA:1,2013-11-01T05:30:00Z,30.2791,-87.5561,0.0,23.32,2 
DISL,ioos:station:DISL:PPTA:1,2013-11-01T06:00:00Z,30.2791,-87.5561,0.0,23.3,2 
DISL,ioos:station:DISL:PPTA:1,2013-11-01T06:30:00Z,30.2791,-87.5561,0.0,23.3,2 
DISL,ioos:station:DISL:PPTA:1,2013-11-01T07:00:00Z,30.2791,-87.5561,0.0,23.29,2 
DISL,ioos:station:DISL:PPTA:1,2013-11-01T07:30:00Z,30.2791,-87.5561,0.0,23.31,2 
DISL,ioos:station:DISL:PPTA:1,2013-11-01T08:00:00Z,30.2791,-87.5561,0.0,23.31,2 
DISL,ioos:station:DISL:PPTA:1,2013-11-01T08:30:00Z,30.2791,-87.5561,0.0,23.31,2 
DISL,ioos:station:DISL:PPTA:1,2013-11-01T09:00:00Z,30.2791,-87.5561,0.0,23.29,2 
DISL,ioos:station:DISL:PPTA:1,2013-11-01T09:30:00Z,30.2791,-87.5561,0.0,23.29,2 
DISL,ioos:station:DISL:PPTA:1,2013-11-01T10:00:00Z,30.2791,-87.5561,0.0,23.29,2 
DISL,ioos:station:DISL:PPTA:1,2013-11-01T10:30:00Z,30.2791,-87.5561,0.0,23.28,2 
DISL,ioos:station:DISL:PPTA:1,2013-11-01T11:00:00Z,30.2791,-87.5561,0.0,23.29,2 
DISL,ioos:station:DISL:PPTA:1,2013-11-01T11:30:00Z,30.2791,-87.5561,0.0,23.3,2 
DISL,ioos:station:DISL:PPTA:1,2013-11-01T12:00:00Z,30.2791,-87.5561,0.0,23.28,2 
DISL,ioos:station:DISL:PPTA:1,2013-11-01T12:30:00Z,30.2791,-87.5561,0.0,23.29,2 
DISL,ioos:station:DISL:PPTA:1,2013-11-01T13:00:00Z,30.2791,-87.5561,0.0,23.3,2 
DISL,ioos:station:DISL:PPTA:1,2013-11-01T13:30:00Z,30.2791,-87.5561,0.0,23.29,2 
DISL,ioos:station:DISL:PPTA:1,2013-11-01T14:00:00Z,30.2791,-87.5561,0.0,23.3,2 
DISL,ioos:station:DISL:PPTA:1,2013-11-01T14:30:00Z,30.2791,-87.5561,0.0,23.29,2 
DISL,ioos:station:DISL:PPTA:1,2013-11-01T15:00:00Z,30.2791,-87.5561,0.0,23.36,2 
DISL,ioos:station:DISL:PPTA:1,2013-11-01T15:30:00Z,30.2791,-87.5561,0.0,23.32,2 
DISL,ioos:station:DISL:PPTA:1,2013-11-01T16:00:00Z,30.2791,-87.5561,0.0,23.18,2 
DISL,ioos:station:DISL:PPTA:1,2013-11-01T16:30:00Z,30.2791,-87.5561,0.0,23.2,2 
DISL,ioos:station:DISL:PPTA:1,2013-11-01T17:00:00Z,30.2791,-87.5561,0.0,23.25,2 
DISL,ioos:station:DISL:PPTA:1,2013-11-01T17:30:00Z,30.2791,-87.5561,0.0,23.22,2 
DISL,ioos:station:DISL:PPTA:1,2013-11-01T18:00:00Z,30.2791,-87.5561,0.0,23.36,2 
DISL,ioos:station:DISL:PPTA:1,2013-11-01T18:30:00Z,30.2791,-87.5561,0.0,23.37,2 
DISL,ioos:station:DISL:PPTA:1,2013-11-01T19:00:00Z,30.2791,-87.5561,0.0,23.39,2 
DISL,ioos:station:DISL:PPTA:1,2013-11-01T19:30:00Z,30.2791,-87.5561,0.0,23.33,2 
DISL,ioos:station:DISL:PPTA:1,2013-11-01T20:00:00Z,30.2791,-87.5561,0.0,23.65,2 
DISL,ioos:station:DISL:PPTA:1,2013-11-01T20:30:00Z,30.2791,-87.5561,0.0,23.76,2 
DISL,ioos:station:DISL:PPTA:1,2013-11-01T21:00:00Z,30.2791,-87.5561,0.0,23.98,2 
DISL,ioos:station:DISL:PPTA:1,2013-11-01T21:30:00Z,30.2791,-87.5561,0.0,23.99,2 
DISL,ioos:station:DISL:PPTA:1,2013-11-01T22:00:00Z,30.2791,-87.5561,0.0,24.0,2 
DISL,ioos:station:DISL:PPTA:1,2013-11-01T22:30:00Z,30.2791,-87.5561,0.0,24.12,2 
DISL,ioos:station:DISL:PPTA:1,2013-11-01T23:00:00Z,30.2791,-87.5561,0.0,23.91,2 
DISL,ioos:station:DISL:PPTA:1,2013-11-01T23:30:00Z,30.2791,-87.5561,0.0,24.04,2 
DISL,ioos:station:DISL:PPTA:1,2013-11-02T00:00:00Z,30.2791,-87.5561,0.0,23.98,2 
DISL,ioos:station:DISL:PPTA:1,2013-11-02T00:30:00Z,30.2791,-87.5561,0.0,24.06,2 
DISL,ioos:station:DISL:PPTA:1,2013-11-02T01:00:00Z,30.2791,-87.5561,0.0,24.0,2 
DISL,ioos:station:DISL:PPTA:1,2013-11-02T01:30:00Z,30.2791,-87.5561,0.0,24.02,2 
DISL,ioos:station:DISL:PPTA:1,2013-11-02T02:00:00Z,30.2791,-87.5561,0.0,24.05,2 
DISL,ioos:station:DISL:PPTA:1,2013-11-02T02:30:00Z,30.2791,-87.5561,0.0,23.99,2 
DISL,ioos:station:DISL:PPTA:1,2013-11-02T03:00:00Z,30.2791,-87.5561,0.0,23.99,2 
DISL,ioos:station:DISL:PPTA:1,2013-11-02T03:30:00Z,30.2791,-87.5561,0.0,23.97,2 
DISL,ioos:station:DISL:PPTA:1,2013-11-02T04:00:00Z,30.2791,-87.5561,0.0,23.97,2 
DISL,ioos:station:DISL:PPTA:1,2013-11-02T04:30:00Z,30.2791,-87.5561,0.0,23.89,2 
DISL,ioos:station:DISL:PPTA:1,2013-11-02T05:00:00Z,30.2791,-87.5561,0.0,23.48,2 
DISL,ioos:station:DISL:PPTA:1,2013-11-02T05:30:00Z,30.2791,-87.5561,0.0,23.51,2 
DISL,ioos:station:DISL:PPTA:1,2013-11-02T06:00:00Z,30.2791,-87.5561,0.0,23.6,2 
DISL,ioos:station:DISL:PPTA:1,2013-11-02T06:30:00Z,30.2791,-87.5561,0.0,23.67,2 
DISL,ioos:station:DISL:PPTA:1,2013-11-02T07:00:00Z,30.2791,-87.5561,0.0,23.57,2 
DISL,ioos:station:DISL:PPTA:1,2013-11-02T07:30:00Z,30.2791,-87.5561,0.0,23.18,2 
DISL,ioos:station:DISL:PPTA:1,2013-11-02T08:00:00Z,30.2791,-87.5561,0.0,22.9,2 
DISL,ioos:station:DISL:PPTA:1,2013-11-02T08:30:00Z,30.2791,-87.5561,0.0,22.58,2 
DISL,ioos:station:DISL:PPTA:1,2013-11-02T09:00:00Z,30.2791,-87.5561,0.0,22.67,2 
DISL,ioos:station:DISL:PPTA:1,2013-11-02T09:30:00Z,30.2791,-87.5561,0.0,22.65,2 
DISL,ioos:station:DISL:PPTA:1,2013-11-02T10:00:00Z,30.2791,-87.5561,0.0,22.51,2 
DISL,ioos:station:DISL:PPTA:1,2013-11-02T10:30:00Z,30.2791,-87.5561,0.0,22.59,2 
DISL,ioos:station:DISL:PPTA:1,2013-11-02T11:00:00Z,30.2791,-87.5561,0.0,22.34,2 
DISL,ioos:station:DISL:PPTA:1,2013-11-02T11:30:00Z,30.2791,-87.5561,0.0,22.42,2 
DISL,ioos:station:DISL:PPTA:1,2013-11-02T12:00:00Z,30.2791,-87.5561,0.0,21.95,2 
DISL,ioos:station:DISL:PPTA:1,2013-11-02T12:30:00Z,30.2791,-87.5561,0.0,22.27,2 
DISL,ioos:station:DISL:PPTA:1,2013-11-02T13:00:00Z,30.2791,-87.5561,0.0,21.87,2 
DISL,ioos:station:DISL:PPTA:1,2013-11-02T13:30:00Z,30.2791,-87.5561,0.0,21.9,2 
DISL,ioos:station:DISL:PPTA:1,2013-11-02T14:00:00Z,30.2791,-87.5561,0.0,21.96,2 
DISL,ioos:station:DISL:PPTA:1,2013-11-02T14:30:00Z,30.2791,-87.5561,0.0,21.69,2 
DISL,ioos:station:DISL:PPTA:1,2013-11-02T15:00:00Z,30.2791,-87.5561,0.0,21.73,2 
DISL,ioos:station:DISL:PPTA:1,2013-11-02T15:30:00Z,30.2791,-87.5561,0.0,21.8,2 
DISL,ioos:station:DISL:PPTA:1,2013-11-02T16:00:00Z,30.2791,-87.5561,0.0,22.11,2 
DISL,ioos:station:DISL:PPTA:1,2013-11-02T16:30:00Z,30.2791,-87.5561,0.0,22.16,2 
DISL,ioos:station:DISL:PPTA:1,2013-11-02T17:00:00Z,30.2791,-87.5561,0.0,22.59,2 
DISL,ioos:station:DISL:PPTA:1,2013-11-02T17:30:00Z,30.2791,-87.5561,0.0,22.4,2 
DISL,ioos:station:DISL:PPTA:1,2013-11-02T18:00:00Z,30.2791,-87.5561,0.0,22.68,2 
DISL,ioos:station:DISL:PPTA:1,2013-11-02T18:30:00Z,30.2791,-87.5561,0.0,22.7,2 
DISL,ioos:station:DISL:PPTA:1,2013-11-02T19:00:00Z,30.2791,-87.5561,0.0,23.03,2 
DISL,ioos:station:DISL:PPTA:1,2013-11-02T19:30:00Z,30.2791,-87.5561,0.0,23.37,2 
DISL,ioos:station:DISL:PPTA:1,2013-11-02T20:00:00Z,30.2791,-87.5561,0.0,23.93,2 
DISL,ioos:station:DISL:PPTA:1,2013-11-02T20:30:00Z,30.2791,-87.5561,0.0,23.86,2 
DISL,ioos:station:DISL:PPTA:1,2013-11-02T21:00:00Z,30.2791,-87.5561,0.0,24.26,2 
DISL,ioos:station:DISL:PPTA:1,2013-11-02T21:30:00Z,30.2791,-87.5561,0.0,24.14,2 
DISL,ioos:station:DISL:PPTA:1,2013-11-02T22:00:00Z,30.2791,-87.5561,0.0,24.11,2 
DISL,ioos:station:DISL:PPTA:1,2013-11-02T22:30:00Z,30.2791,-87.5561,0.0,24.15,2 
DISL,ioos:station:DISL:PPTA:1,2013-11-02T23:00:00Z,30.2791,-87.5561,0.0,24.09,2 
DISL,ioos:station:DISL:PPTA:1,2013-11-02T23:30:00Z,30.2791,-87.5561,0.0,24.02,2 
DISL,ioos:station:DISL:PPTA:1,2013-11-03T00:00:00Z,30.2791,-87.5561,0.0,24.05,2 
DISL,ioos:station:DISL:PPTA:1,2013-11-03T00:30:00Z,30.2791,-87.5561,0.0,23.95,2 
DISL,ioos:station:DISL:PPTA:1,2013-11-03T01:00:00Z,30.2791,-87.5561,0.0,23.96,2 
DISL,ioos:station:DISL:PPTA:1,2013-11-03T01:30:00Z,30.2791,-87.5561,0.0,23.82,2 
DISL,ioos:station:DISL:PPTA:1,2013-11-03T02:00:00Z,30.2791,-87.5561,0.0,23.84,2 
DISL,ioos:station:DISL:PPTA:1,2013-11-03T02:30:00Z,30.2791,-87.5561,0.0,23.8,2 
DISL,ioos:station:DISL:PPTA:1,2013-11-03T03:00:00Z,30.2791,-87.5561,0.0,23.71,2 
DISL,ioos:station:DISL:PPTA:1,2013-11-03T03:30:00Z,30.2791,-87.5561,0.0,21.82,2 
DISL,ioos:station:DISL:PPTA:1,2013-11-03T04:00:00Z,30.2791,-87.5561,0.0,22.1,2 
DISL,ioos:station:DISL:PPTA:1,2013-11-03T04:30:00Z,30.2791,-87.5561,0.0,22.04,2 
DISL,ioos:station:DISL:PPTA:1,2013-11-03T05:00:00Z,30.2791,-87.5561,0.0,22.73,2 
DISL,ioos:station:DISL:PPTA:1,2013-11-03T05:30:00Z,30.2791,-87.5561,0.0,22.32,2 
DISL,ioos:station:DISL:PPTA:1,2013-11-03T06:00:00Z,30.2791,-87.5561,0.0,22.36,2 
DISL,ioos:station:DISL:PPTA:1,2013-11-03T06:30:00Z,30.2791,-87.5561,0.0,22.37,2 
DISL,ioos:station:DISL:PPTA:1,2013-11-03T07:00:00Z,30.2791,-87.5561,0.0,21.78,2 
DISL,ioos:station:DISL:PPTA:1,2013-11-03T07:30:00Z,30.2791,-87.5561,0.0,21.79,2 
DISL,ioos:station:DISL:PPTA:1,2013-11-03T08:00:00Z,30.2791,-87.5561,0.0,21.43,2 
DISL,ioos:station:DISL:PPTA:1,2013-11-03T08:30:00Z,30.2791,-87.5561,0.0,21.55,2 
DISL,ioos:station:DISL:PPTA:1,2013-11-03T09:00:00Z,30.2791,-87.5561,0.0,21.54,2 
DISL,ioos:station:DISL:PPTA:1,2013-11-03T09:30:00Z,30.2791,-87.5561,0.0,21.29,2 
DISL,ioos:station:DISL:PPTA:1,2013-11-03T10:00:00Z,30.2791,-87.5561,0.0,21.25,2 
DISL,ioos:station:DISL:PPTA:1,2013-11-03T10:30:00Z,30.2791,-87.5561,0.0,21.21,2 
DISL,ioos:station:DISL:PPTA:1,2013-11-03T11:00:00Z,30.2791,-87.5561,0.0,21.04,2 
DISL,ioos:station:DISL:PPTA:1,2013-11-03T11:30:00Z,30.2791,-87.5561,0.0,20.96,2 
DISL,ioos:station:DISL:PPTA:1,2013-11-03T12:00:00Z,30.2791,-87.5561,0.0,20.94,2 
DISL,ioos:station:DISL:PPTA:1,2013-11-03T12:30:00Z,30.2791,-87.5561,0.0,20.8,2 
DISL,ioos:station:DISL:PPTA:1,2013-11-03T13:00:00Z,30.2791,-87.5561,0.0,20.75,2 
DISL,ioos:station:DISL:PPTA:1,2013-11-03T13:30:00Z,30.2791,-87.5561,0.0,20.73,2 
DISL,ioos:station:DISL:PPTA:1,2013-11-03T14:00:00Z,30.2791,-87.5561,0.0,20.69,2 
DISL,ioos:station:DISL:PPTA:1,2013-11-03T14:30:00Z,30.2791,-87.5561,0.0,20.71,2 
DISL,ioos:station:DISL:PPTA:1,2013-11-03T15:00:00Z,30.2791,-87.5561,0.0,20.85,2 
DISL,ioos:station:DISL:PPTA:1,2013-11-03T15:30:00Z,30.2791,-87.5561,0.0,20.56,2 
DISL,ioos:station:DISL:PPTA:1,2013-11-03T16:00:00Z,30.2791,-87.5561,0.0,21.02,2 
DISL,ioos:station:DISL:PPTA:1,2013-11-03T16:30:00Z,30.2791,-87.5561,0.0,21.02,2 
DISL,ioos:station:DISL:PPTA:1,2013-11-03T17:00:00Z,30.2791,-87.5561,0.0,21.42,2 
DISL,ioos:station:DISL:PPTA:1,2013-11-03T17:30:00Z,30.2791,-87.5561,0.0,21.99,2 
DISL,ioos:station:DISL:PPTA:1,2013-11-03T18:00:00Z,30.2791,-87.5561,0.0,23.12,2 
DISL,ioos:station:DISL:PPTA:1,2013-11-03T18:30:00Z,30.2791,-87.5561,0.0,23.06,2 
DISL,ioos:station:DISL:PPTA:1,2013-11-03T19:00:00Z,30.2791,-87.5561,0.0,23.29,2 
DISL,ioos:station:DISL:PPTA:1,2013-11-03T19:30:00Z,30.2791,-87.5561,0.0,23.46,2 
DISL,ioos:station:DISL:PPTA:1,2013-11-03T20:00:00Z,30.2791,-87.5561,0.0,23.38,2 
DISL,ioos:station:DISL:PPTA:1,2013-11-03T20:30:00Z,30.2791,-87.5561,0.0,23.54,2 
DISL,ioos:station:DISL:PPTA:1,2013-11-03T21:00:00Z,30.2791,-87.5561,0.0,23.49,2 
DISL,ioos:station:DISL:PPTA:1,2013-11-03T21:30:00Z,30.2791,-87.5561,0.0,23.49,2 
DISL,ioos:station:DISL:PPTA:1,2013-11-03T22:00:00Z,30.2791,-87.5561,0.0,23.44,2 
DISL,ioos:station:DISL:PPTA:1,2013-11-03T22:30:00Z,30.2791,-87.5561,0.0,23.27,2 
DISL,ioos:station:DISL:PPTA:1,2013-11-03T23:00:00Z,30.2791,-87.5561,0.0,23.39,2 
DISL,ioos:station:DISL:PPTA:1,2013-11-03T23:30:00Z,30.2791,-87.5561,0.0,23.26,2 
DISL,ioos:station:DISL:PPTA:1,2013-11-04T00:00:00Z,30.2791,-87.5561,0.0,23.15,2 
DISL,ioos:station:DISL:PPTA:1,2013-11-04T00:30:00Z,30.2791,-87.5561,0.0,23.19,2 
DISL,ioos:station:DISL:PPTA:1,2013-11-04T01:00:00Z,30.2791,-87.5561,0.0,23.11,2 
DISL,ioos:station:DISL:PPTA:1,2013-11-04T01:30:00Z,30.2791,-87.5561,0.0,23.1,2 
DISL,ioos:station:DISL:PPTA:1,2013-11-04T02:00:00Z,30.2791,-87.5561,0.0,23.08,2 
DISL,ioos:station:DISL:PPTA:1,2013-11-04T02:30:00Z,30.2791,-87.5561,0.0,23.07,2 
DISL,ioos:station:DISL:PPTA:1,2013-11-04T03:00:00Z,30.2791,-87.5561,0.0,22.07,2 
DISL,ioos:station:DISL:PPTA:1,2013-11-04T03:30:00Z,30.2791,-87.5561,0.0,22.93,2 
DISL,ioos:station:DISL:PPTA:1,2013-11-04T04:00:00Z,30.2791,-87.5561,0.0,22.83,2 
DISL,ioos:station:DISL:PPTA:1,2013-11-04T04:30:00Z,30.2791,-87.5561,0.0,23.01,2 
DISL,ioos:station:DISL:PPTA:1,2013-11-04T05:00:00Z,30.2791,-87.5561,0.0,22.94,2 
DISL,ioos:station:DISL:PPTA:1,2013-11-04T05:30:00Z,30.2791,-87.5561,0.0,21.38,2 
DISL,ioos:station:DISL:PPTA:1,2013-11-04T06:00:00Z,30.2791,-87.5561,0.0,22.88,2 
DISL,ioos:station:DISL:PPTA:1,2013-11-04T06:30:00Z,30.2791,-87.5561,0.0,22.52,2 
DISL,ioos:station:DISL:PPTA:1,2013-11-04T07:00:00Z,30.2791,-87.5561,0.0,22.46,2 
DISL,ioos:station:DISL:PPTA:1,2013-11-04T07:30:00Z,30.2791,-87.5561,0.0,22.33,2 
DISL,ioos:station:DISL:PPTA:1,2013-11-04T08:00:00Z,30.2791,-87.5561,0.0,22.77,2 
DISL,ioos:station:DISL:PPTA:1,2013-11-04T08:30:00Z,30.2791,-87.5561,0.0,21.84,2 
DISL,ioos:station:DISL:PPTA:1,2013-11-04T09:00:00Z,30.2791,-87.5561,0.0,22.02,2 
DISL,ioos:station:DISL:PPTA:1,2013-11-04T09:30:00Z,30.2791,-87.5561,0.0,21.56,2 
DISL,ioos:station:DISL:PPTA:1,2013-11-04T10:00:00Z,30.2791,-87.5561,0.0,21.3,2 
DISL,ioos:station:DISL:PPTA:1,2013-11-04T10:30:00Z,30.2791,-87.5561,0.0,21.01,2 
DISL,ioos:station:DISL:PPTA:1,2013-11-04T11:00:00Z,30.2791,-87.5561,0.0,20.93,2 
DISL,ioos:station:DISL:PPTA:1,2013-11-04T11:30:00Z,30.2791,-87.5561,0.0,20.71,2 
DISL,ioos:station:DISL:PPTA:1,2013-11-04T12:00:00Z,30.2791,-87.5561,0.0,20.73,2 
DISL,ioos:station:DISL:PPTA:1,2013-11-04T12:30:00Z,30.2791,-87.5561,0.0,20.65,2 
DISL,ioos:station:DISL:PPTA:1,2013-11-04T13:00:00Z,30.2791,-87.5561,0.0,20.44,2 
DISL,ioos:station:DISL:PPTA:1,2013-11-04T13:30:00Z,30.2791,-87.5561,0.0,20.19,2 
DISL,ioos:station:DISL:PPTA:1,2013-11-04T14:00:00Z,30.2791,-87.5561,0.0,20.22,2 
DISL,ioos:station:DISL:PPTA:1,2013-11-04T14:30:00Z,30.2791,-87.5561,0.0,20.19,2 
DISL,ioos:station:DISL:PPTA:1,2013-11-04T15:00:00Z,30.2791,-87.5561,0.0,20.17,2 
DISL,ioos:station:DISL:PPTA:1,2013-11-04T15:30:00Z,30.2791,-87.5561,0.0,20.12,2 
DISL,ioos:station:DISL:PPTA:1,2013-11-04T16:00:00Z,30.2791,-87.5561,0.0,20.08,2 
DISL,ioos:station:DISL:PPTA:1,2013-11-04T16:30:00Z,30.2791,-87.5561,0.0,20.07,2 
DISL,ioos:station:DISL:PPTA:1,2013-11-04T17:00:00Z,30.2791,-87.5561,0.0,19.93,2 
DISL,ioos:station:DISL:PPTA:1,2013-11-04T17:30:00Z,30.2791,-87.5561,0.0,20.01,2 
DISL,ioos:station:DISL:PPTA:1,2013-11-04T18:00:00Z,30.2791,-87.5561,0.0,20.09,2 
DISL,ioos:station:DISL:PPTA:1,2013-11-04T18:30:00Z,30.2791,-87.5561,0.0,20.09,2 
DISL,ioos:station:DISL:PPTA:1,2013-11-04T19:00:00Z,30.2791,-87.5561,0.0,20.48,2 
DISL,ioos:station:DISL:PPTA:1,2013-11-04T19:30:00Z,30.2791,-87.5561,0.0,20.52,2 
DISL,ioos:station:DISL:PPTA:1,2013-11-04T20:00:00Z,30.2791,-87.5561,0.0,20.77,2 
DISL,ioos:station:DISL:PPTA:1,2013-11-04T20:30:00Z,30.2791,-87.5561,0.0,21.12,2 
DISL,ioos:station:DISL:PPTA:1,2013-11-04T21:00:00Z,30.2791,-87.5561,0.0,21.59,2 
DISL,ioos:station:DISL:PPTA:1,2013-11-04T21:30:00Z,30.2791,-87.5561,0.0,21.74,2 
DISL,ioos:station:DISL:PPTA:1,2013-11-04T22:00:00Z,30.2791,-87.5561,0.0,21.87,2 
DISL,ioos:station:DISL:PPTA:1,2013-11-04T22:30:00Z,30.2791,-87.5561,0.0,22.03,2 
DISL,ioos:station:DISL:PPTA:1,2013-11-04T23:00:00Z,30.2791,-87.5561,0.0,22.04,2 
DISL,ioos:station:DISL:PPTA:1,2013-11-04T23:30:00Z,30.2791,-87.5561,0.0,22.02,2 
DISL,ioos:station:DISL:PPTA:1,2013-11-05T00:00:00Z,30.2791,-87.5561,0.0,22.03,2 
DISL,ioos:station:DISL:PPTA:1,2013-11-05T00:30:00Z,30.2791,-87.5561,0.0,22.04,2 
DISL,ioos:station:DISL:PPTA:1,2013-11-05T01:00:00Z,30.2791,-87.5561,0.0,22.0,2 
DISL,ioos:station:DISL:PPTA:1,2013-11-05T01:30:00Z,30.2791,-87.5561,0.0,22.03,2 
DISL,ioos:station:DISL:PPTA:1,2013-11-05T02:00:00Z,30.2791,-87.5561,0.0,21.96,2 
DISL,ioos:station:DISL:PPTA:1,2013-11-05T02:30:00Z,30.2791,-87.5561,0.0,22.02,2 
DISL,ioos:station:DISL:PPTA:1,2013-11-05T03:00:00Z,30.2791,-87.5561,0.0,21.99,2 
DISL,ioos:station:DISL:PPTA:1,2013-11-05T03:30:00Z,30.2791,-87.5561,0.0,21.98,2 
DISL,ioos:station:DISL:PPTA:1,2013-11-05T04:00:00Z,30.2791,-87.5561,0.0,21.86,2 
DISL,ioos:station:DISL:PPTA:1,2013-11-05T04:30:00Z,30.2791,-87.5561,0.0,21.86,2 
DISL,ioos:station:DISL:PPTA:1,2013-11-05T05:00:00Z,30.2791,-87.5561,0.0,21.67,2 
DISL,ioos:station:DISL:PPTA:1,2013-11-05T05:30:00Z,30.2791,-87.5561,0.0,21.52,2 
DISL,ioos:station:DISL:PPTA:1,2013-11-05T06:00:00Z,30.2791,-87.5561,0.0,21.52,2 
DISL,ioos:station:DISL:PPTA:1,2013-11-05T06:30:00Z,30.2791,-87.5561,0.0,21.34,2 
DISL,ioos:station:DISL:PPTA:1,2013-11-05T07:00:00Z,30.2791,-87.5561,0.0,21.21,2 
DISL,ioos:station:DISL:PPTA:1,2013-11-05T07:30:00Z,30.2791,-87.5561,0.0,21.12,2 
DISL,ioos:station:DISL:PPTA:1,2013-11-05T08:00:00Z,30.2791,-87.5561,0.0,20.91,2 
DISL,ioos:station:DISL:PPTA:1,2013-11-05T08:30:00Z,30.2791,-87.5561,0.0,20.72,2 
DISL,ioos:station:DISL:PPTA:1,2013-11-05T09:00:00Z,30.2791,-87.5561,0.0,21.0,2 
DISL,ioos:station:DISL:PPTA:1,2013-11-05T09:30:00Z,30.2791,-87.5561,0.0,20.9,2 
DISL,ioos:station:DISL:PPTA:1,2013-11-05T10:00:00Z,30.2791,-87.5561,0.0,20.6,2 
DISL,ioos:station:DISL:PPTA:1,2013-11-05T10:30:00Z,30.2791,-87.5561,0.0,20.88,2 
DISL,ioos:station:DISL:PPTA:1,2013-11-05T11:00:00Z,30.2791,-87.5561,0.0,20.85,2 
DISL,ioos:station:DISL:PPTA:1,2013-11-05T11:30:00Z,30.2791,-87.5561,0.0,21.11,2 
DISL,ioos:station:DISL:PPTA:1,2013-11-05T12:00:00Z,30.2791,-87.5561,0.0,20.42,2 
DISL,ioos:station:DISL:PPTA:1,2013-11-05T12:30:00Z,30.2791,-87.5561,0.0,20.26,2 
DISL,ioos:station:DISL:PPTA:1,2013-11-05T13:00:00Z,30.2791,-87.5561,0.0,20.29,2 
DISL,ioos:station:DISL:PPTA:1,2013-11-05T13:30:00Z,30.2791,-87.5561,0.0,20.22,2 
DISL,ioos:station:DISL:PPTA:1,2013-11-05T14:00:00Z,30.2791,-87.5561,0.0,20.23,2 
DISL,ioos:station:DISL:PPTA:1,2013-11-05T14:30:00Z,30.2791,-87.5561,0.0,20.19,2 
DISL,ioos:station:DISL:PPTA:1,2013-11-05T15:00:00Z,30.2791,-87.5561,0.0,20.18,2 
DISL,ioos:station:DISL:PPTA:1,2013-11-05T15:30:00Z,30.2791,-87.5561,0.0,20.29,2 
DISL,ioos:station:DISL:PPTA:1,2013-11-05T16:00:00Z,30.2791,-87.5561,0.0,20.29,2 
DISL,ioos:station:DISL:PPTA:1,2013-11-05T16:30:00Z,30.2791,-87.5561,0.0,20.3,2 
DISL,ioos:station:DISL:PPTA:1,2013-11-05T17:00:00Z,30.2791,-87.5561,0.0,20.17,2 
DISL,ioos:station:DISL:PPTA:1,2013-11-05T17:30:00Z,30.2791,-87.5561,0.0,20.09,2 
DISL,ioos:station:DISL:PPTA:1,2013-11-05T18:00:00Z,30.2791,-87.5561,0.0,20.19,2 
DISL,ioos:station:DISL:PPTA:1,2013-11-05T18:30:00Z,30.2791,-87.5561,0.0,20.2,2 
DISL,ioos:station:DISL:PPTA:1,2013-11-05T19:00:00Z,30.2791,-87.5561,0.0,20.5,2 
DISL,ioos:station:DISL:PPTA:1,2013-11-05T19:30:00Z,30.2791,-87.5561,0.0,20.54,2 
DISL,ioos:station:DISL:PPTA:1,2013-11-05T20:00:00Z,30.2791,-87.5561,0.0,20.53,2 
DISL,ioos:station:DISL:PPTA:1,2013-11-05T20:30:00Z,30.2791,-87.5561,0.0,20.64,2 
DISL,ioos:station:DISL:PPTA:1,2013-11-05T21:00:00Z,30.2791,-87.5561,0.0,20.52,2 
DISL,ioos:station:DISL:PPTA:1,2013-11-05T21:30:00Z,30.2791,-87.5561,0.0,20.67,2 
DISL,ioos:station:DISL:PPTA:1,2013-11-05T22:00:00Z,30.2791,-87.5561,0.0,20.88,2 
DISL,ioos:station:DISL:PPTA:1,2013-11-05T22:30:00Z,30.2791,-87.5561,0.0,20.87,2 
DISL,ioos:station:DISL:PPTA:1,2013-11-05T23:00:00Z,30.2791,-87.5561,0.0,21.09,2 
DISL,ioos:station:DISL:PPTA:1,2013-11-05T23:30:00Z,30.2791,-87.5561,0.0,21.08,2 
DISL,ioos:station:DISL:PPTA:1,2013-11-06T00:00:00Z,30.2791,-87.5561,0.0,21.06,2 
DISL,ioos:station:DISL:PPTA:1,2013-11-06T00:30:00Z,30.2791,-87.5561,0.0,21.21,2 
DISL,ioos:station:DISL:PPTA:1,2013-11-06T01:00:00Z,30.2791,-87.5561,0.0,21.2,2 
DISL,ioos:station:DISL:PPTA:1,2013-11-06T01:30:00Z,30.2791,-87.5561,0.0,21.24,2 
DISL,ioos:station:DISL:PPTA:1,2013-11-06T02:00:00Z,30.2791,-87.5561,0.0,21.27,2 
DISL,ioos:station:DISL:PPTA:1,2013-11-06T02:30:00Z,30.2791,-87.5561,0.0,21.27,2 
DISL,ioos:station:DISL:PPTA:1,2013-11-06T03:00:00Z,30.2791,-87.5561,0.0,21.25,2 
DISL,ioos:station:DISL:PPTA:1,2013-11-06T03:30:00Z,30.2791,-87.5561,0.0,21.18,2 
DISL,ioos:station:DISL:PPTA:1,2013-11-06T04:00:00Z,30.2791,-87.5561,0.0,21.25,2 
DISL,ioos:station:DISL:PPTA:1,2013-11-06T04:30:00Z,30.2791,-87.5561,0.0,21.04,2 
DISL,ioos:station:DISL:PPTA:1,2013-11-06T05:00:00Z,30.2791,-87.5561,0.0,21.26,2 
DISL,ioos:station:DISL:PPTA:1,2013-11-06T05:30:00Z,30.2791,-87.5561,0.0,21.29,2 
DISL,ioos:station:DISL:PPTA:1,2013-11-06T06:00:00Z,30.2791,-87.5561,0.0,21.36,2 
DISL,ioos:station:DISL:PPTA:1,2013-11-06T06:30:00Z,30.2791,-87.5561,0.0,21.45,2 
DISL,ioos:station:DISL:PPTA:1,2013-11-06T07:00:00Z,30.2791,-87.5561,0.0,21.53,2 
DISL,ioos:station:DISL:PPTA:1,2013-11-06T07:30:00Z,30.2791,-87.5561,0.0,21.44,2 
DISL,ioos:station:DISL:PPTA:1,2013-11-06T08:00:00Z,30.2791,-87.5561,0.0,20.81,2 
DISL,ioos:station:DISL:PPTA:1,2013-11-06T08:30:00Z,30.2791,-87.5561,0.0,21.37,2 
DISL,ioos:station:DISL:PPTA:1,2013-11-06T09:00:00Z,30.2791,-87.5561,0.0,20.42,2 
DISL,ioos:station:DISL:PPTA:1,2013-11-06T09:30:00Z,30.2791,-87.5561,0.0,20.53,2 
DISL,ioos:station:DISL:PPTA:1,2013-11-06T10:00:00Z,30.2791,-87.5561,0.0,21.18,2 
DISL,ioos:station:DISL:PPTA:1,2013-11-06T10:30:00Z,30.2791,-87.5561,0.0,21.22,2 
DISL,ioos:station:DISL:PPTA:1,2013-11-06T11:00:00Z,30.2791,-87.5561,0.0,21.1,2 
DISL,ioos:station:DISL:PPTA:1,2013-11-06T11:30:00Z,30.2791,-87.5561,0.0,21.02,2 
DISL,ioos:station:DISL:PPTA:1,2013-11-06T12:00:00Z,30.2791,-87.5561,0.0,20.32,2 
DISL,ioos:station:DISL:PPTA:1,2013-11-06T12:30:00Z,30.2791,-87.5561,0.0,20.62,2 
DISL,ioos:station:DISL:PPTA:1,2013-11-06T13:00:00Z,30.2791,-87.5561,0.0,20.46,2 
DISL,ioos:station:DISL:PPTA:1,2013-11-06T13:30:00Z,30.2791,-87.5561,0.0,20.4,2 
DISL,ioos:station:DISL:PPTA:1,2013-11-06T14:00:00Z,30.2791,-87.5561,0.0,20.44,2 
DISL,ioos:station:DISL:PPTA:1,2013-11-06T14:30:00Z,30.2791,-87.5561,0.0,20.11,2 
DISL,ioos:station:DISL:PPTA:1,2013-11-06T15:00:00Z,30.2791,-87.5561,0.0,20.3,2 
DISL,ioos:station:DISL:PPTA:1,2013-11-06T15:30:00Z,30.2791,-87.5561,0.0,20.27,2 
DISL,ioos:station:DISL:PPTA:1,2013-11-06T16:00:00Z,30.2791,-87.5561,0.0,20.28,2 
DISL,ioos:station:DISL:PPTA:1,2013-11-06T16:30:00Z,30.2791,-87.5561,0.0,20.38,2 
DISL,ioos:station:DISL:PPTA:1,2013-11-06T17:00:00Z,30.2791,-87.5561,0.0,20.46,2 
DISL,ioos:station:DISL:PPTA:1,2013-11-06T17:30:00Z,30.2791,-87.5561,0.0,20.49,2 
DISL,ioos:station:DISL:PPTA:1,2013-11-06T18:00:00Z,30.2791,-87.5561,0.0,20.55,2 
DISL,ioos:station:DISL:PPTA:1,2013-11-06T18:30:00Z,30.2791,-87.5561,0.0,20.45,2 
DISL,ioos:station:DISL:PPTA:1,2013-11-06T19:00:00Z,30.2791,-87.5561,0.0,20.54,2 
DISL,ioos:station:DISL:PPTA:1,2013-11-06T19:30:00Z,30.2791,-87.5561,0.0,20.57,2 
DISL,ioos:station:DISL:PPTA:1,2013-11-06T20:00:00Z,30.2791,-87.5561,0.0,20.6,2 
DISL,ioos:station:DISL:PPTA:1,2013-11-06T20:30:00Z,30.2791,-87.5561,0.0,20.81,2 
DISL,ioos:station:DISL:PPTA:1,2013-11-06T21:00:00Z,30.2791,-87.5561,0.0,20.86,2 
DISL,ioos:station:DISL:PPTA:1,2013-11-06T21:30:00Z,30.2791,-87.5561,0.0,20.9,2 
DISL,ioos:station:DISL:PPTA:1,2013-11-06T22:00:00Z,30.2791,-87.5561,0.0,21.02,2 
DISL,ioos:station:DISL:PPTA:1,2013-11-06T22:30:00Z,30.2791,-87.5561,0.0,21.35,2 
DISL,ioos:station:DISL:PPTA:1,2013-11-06T23:00:00Z,30.2791,-87.5561,0.0,21.52,2 
DISL,ioos:station:DISL:PPTA:1,2013-11-06T23:30:00Z,30.2791,-87.5561,0.0,21.56,2 
DISL,ioos:station:DISL:PPTA:1,2013-11-07T00:00:00Z,30.2791,-87.5561,0.0,21.62,2 
DISL,ioos:station:DISL:PPTA:1,2013-11-07T00:30:00Z,30.2791,-87.5561,0.0,21.64,2 
DISL,ioos:station:DISL:PPTA:1,2013-11-07T01:00:00Z,30.2791,-87.5561,0.0,21.63,2 
DISL,ioos:station:DISL:PPTA:1,2013-11-07T01:30:00Z,30.2791,-87.5561,0.0,21.64,2 
DISL,ioos:station:DISL:PPTA:1,2013-11-07T02:00:00Z,30.2791,-87.5561,0.0,21.64,2 
DISL,ioos:station:DISL:PPTA:1,2013-11-07T02:30:00Z,30.2791,-87.5561,0.0,21.64,2 
DISL,ioos:station:DISL:PPTA:1,2013-11-07T03:00:00Z,30.2791,-87.5561,0.0,21.66,2 